Regional Weather Roundup
Issued by NWS

Home | Current Version | Previous Version | Graphics & Text | Print | Product List | Glossary On
Versions: 1 2 3 4 5 6 7 8 9 10 11 12 13 14 15 16 17 18 19 20 21 22 23 24 25 26 27
000
ASUS45 KSLC 221910
RWRUT

UTAH REGIONAL WEATHER ROUNDUP
NATIONAL WEATHER SERVICE SALT LAKE CITY UT
100 PM MDT WED MAR 22 2017

UTZ001>011-023>025-222000-

NORTHERN UTAH

CITY           SKY/WX    TMP DP  RH WIND       PRES   REMARKS
BRIGHAM CITY     N/A     58  43  56 NW5       29.89F
DUGWAY         MOSUNNY   63  41  45 W7        29.84F
HILL AFB       PTSUNNY   55  47  75 NW9       29.89F
LOGAN          MOSUNNY   57  47  69 NW10      29.90F
OGDEN          MOSUNNY   57  45  64 NW9       29.88F
SALT LAKE CITY PTSUNNY   61  44  53 NW14      29.85F
WENDOVER       MOSUNNY   61  37  41 E10       29.88F
HEBER CITY     CLOUDY    63  32  31 S3G16     29.90F

$$

UTZ011>015-024>027-222000-

CENTRAL/NORTHEAST UTAH

CITY           SKY/WX    TMP DP  RH WIND       PRES   REMARKS
PROVO AIRPORT  PTSUNNY   63  43  48 VRB6      29.88F
MOAB/CANYONLAN PTSUNNY   72  26  18 S10G16    29.89F
DELTA          MOSUNNY   66  32  28 SW21G30   29.88F
PRICE          MOSUNNY   65  28  24 VRB7G16   29.93F
RICHFIELD      SUNNY     68  28  22 S9G16     29.91F
ROOSEVELT      MOSUNNY   68  32  26 SW6       29.94F
VERNAL         CLOUDY    66  31  27 VRB7      29.93F

$$

UTZ013>016-019>022-027-222000-

SOUTHERN UTAH

CITY           SKY/WX    TMP DP  RH WIND       PRES   REMARKS
BRYCE CANYON   PTSUNNY   53  32  44 S22G31    30.04S
CEDAR CITY     MOSUNNY   63  31  30 S25G36    29.93F
MILFORD        MOSUNNY   67  33  28 SW26G35   29.88F
ST GEORGE      CLOUDY    71  40  32 SW16      29.88F
HANKSVILLE     MOSUNNY   73  27  17 S21G31    29.91F
KANAB          MOSUNNY   64  36  34 S12G23    30.01F
BLANDING       CLOUDY    60  28  29 S3        30.12F

$$

REGIONAL REPORTS     COLORADO/ARIZONA

CITY           SKY/WX    TMP DP  RH WIND       PRES   REMARKS
CRAIG, CO      CLOUDY    67  17  14 SW18G35   29.97F
GRAND JUNCTION PTSUNNY   68  26  20 SE8       29.94F
RIFLE, CO      SUNNY     70  18  13 SW16G28   29.99F
MONTROSE, CO   CLOUDY    64  25  22 N10       30.01F
CORTEZ, CO     CLOUDY    68  26  20 S10G22    30.05F
COLORADO CITY    N/A     64  36  34 S9        30.00F
PAGE, AZ       CLOUDY    71  32  23 VRB5      29.93F
GRAND CANYON   CLOUDY    58  35  42 SW17G30   30.06F
KINGMAN, AZ    PTSUNNY   67  36  31 SW15G24   29.97F
FLAGSTAFF, AZ  CLOUDY    53  34  48 SW21G28   30.10F

$$

REGIONAL REPORTS    NEVADA/IDAHO/WYOMING

CITY           SKY/WX    TMP DP  RH WIND       PRES   REMARKS
LAS VEGAS, NV  CLOUDY    69  29  22 S16G23    29.88F
ELY, NY        MOSUNNY   54  11  18 S13G28    29.91F
ELKO, NV       PTSUNNY   50  38  63 VRB3      29.91F
POCATELLO, ID  LGT RAIN  41  39  93 SW12      30.00S
BURLEY, ID     CLOUDY    50  39  66 S3        29.92F
FORT BRIDGER,  CLOUDY    50  39  66 NE3       30.00S
EVANSTON, WY   CLOUDY    51  36  56 SW15      29.95F
ROCK SPRINGS,  CLOUDY    54  36  50 N9        29.96F
KEMMERER, WY     N/A     46  36  66 W3        29.99F

$$




USA.gov is the U.S. government's official web portal to all federal, state and local government web resources and services.